[[{"header":{"parameterUnit":"m.s-1","parameterCategory":2,"la1":30.2991,"la2":30.254,"lo1":-89.0895,"lo2":-89.0444,"dy":0.0017,"dx":0.0017,"nx":28,"ny":28,"refTime":"2025-07-30T21:00:00:Z","depth":"0","parameterNumber":2,"parameterNumberName":"U-component_of_CURRENTS"},"data":[0,0,0,0,0,0,0,0,0,0,0,0,0,0,0,0,0,0,0,0,0,0,0,0,0,0,0,0,0,0,0,0,0,0,0,0,0,0,0,0,0,0,0,0,0,0,0,0,0,0,0,0,0,0,0,0,0,0,0.1111,0.1111,0,0.1158,0.1159,0.1159,0.1172,0.1171,0.1171,0.1171,0.1206,0.1208,0.1209,0,0,0,0,0,0,0,0,0,0,0,0,0,0.1077,0.1078,0.1111,0.1112,0.1112,0.1158,0.1159,0.1159,0.1172,0.1171,0.1171,0.1171,0.1206,0.1207,0.1209,0,0,0,0,0,0,0,0,0,0,0,0,0,0.1104,0.1078,0.1111,0.1124,0.1126,0.1158,0.1159,0.116,0.1172,0.1171,0.1171,0.1171,0.1206,0.1207,0.1209,0.1227,0,0,0.1214,0.1215,0,0,0,0,0,0,0,0,0.1103,0.1105,0.1122,0.1123,0.1126,0.1159,0.116,0.1182,0.1172,0.1154,0.1171,0.1171,0.119,0.1193,0.1202,0.1228,0.123,0.1214,0.1215,0.1216,0.1217,0,0,0,0,0,0,0,0.1101,0.1104,0.1129,0.1122,0.1125,0.1144,0.1147,0.1165,0.1173,0.1155,0.1156,0.1163,0.1191,0.12,0.1203,0.123,0.1214,0.1216,0.1217,0.1218,0.1289,0.129,0,0,0,0,0,0,0.1094,0.1102,0.1128,0.113,0.1114,0.1145,0.1148,0.1148,0.1173,0.1176,0.1163,0.1163,0.1198,0.1201,0.1204,0.1262,0.1216,0.1218,0.1219,0.1288,0.1289,0.129,0,0,0,0,0,0,0.1093,0.1096,0.1126,0.1118,0.1123,0.1145,0.1146,0.1149,0.1162,0.1179,0.1182,0.1172,0.1197,0.1202,0.1229,0.1262,0.1219,0.122,0.1287,0.1289,0.129,0.1355,0,0,0,0,0,0,0.1092,0.1095,0.1093,0.1117,0.1124,0.1152,0.1146,0.1151,0.1167,0.1167,0.1188,0.1191,0.1198,0.1227,0.1231,0.1264,0.1222,0.1286,0.1288,0.1289,0.1352,0.1359,0.1364,0,0,0,0,0,0.1091,0.1098,0.1093,0.1096,0.112,0.1153,0.1159,0.1173,0.1167,0.1181,0.1194,0.119,0.124,0.1229,0.1234,0.1268,0.1285,0.1287,0.1289,0.1349,0.1357,0.1364,0,0,0,0,0,0,0.1091,0.1101,0.1095,0.1106,0.1128,0.1156,0.1174,0.1175,0.1196,0.1196,0.1204,0.1209,0.1247,0.1242,0.123,0.1291,0.1261,0.1264,0.1305,0.1313,0.1319,0.1324,0.1223,0,0,0,0,0,0.1086,0.1091,0.1107,0.1119,0.1131,0.1149,0.1163,0.1171,0.1193,0.1201,0.1217,0.1232,0.1259,0.1272,0.1291,0.1324,0.1345,0.1346,0.1352,0.1357,0.1364,0.1425,0.1438,0.1297,0.1297,0.1297,0,0,0.1099,0.1098,0.1107,0.1119,0.1139,0.1169,0.1158,0.1185,0.1211,0.1202,0.1244,0.1257,0.1272,0.1315,0.133,0.1315,0.1412,0.136,0.1365,0.1368,0.1429,0.1443,0.1455,0.1298,0.1298,0.1298,0,0,0.1128,0.1119,0.1136,0.1152,0.1172,0.1185,0.1192,0.122,0.1234,0.1268,0.1275,0.1306,0.1337,0.1365,0.138,0.1428,0.1444,0.1429,0.1468,0.1528,0.1541,0.1552,0.1614,0.1631,0.1431,0.1431,0.1431,0,0.1147,0.1157,0.1151,0.1173,0.1193,0.1194,0.1228,0.1247,0.128,0.1299,0.1287,0.1354,0.1366,0.1429,0.1447,0.1445,0.148,0.1442,0.1539,0.155,0.1561,0.1622,0.1639,0.1435,0.1434,0.1434,0.1433,0,0.1197,0.12,0.1218,0.1239,0.1257,0.129,0.1308,0.1333,0.1341,0.1358,0.1412,0.1432,0.147,0.1482,0.1482,0.1563,0.1565,0.1543,0.1525,0.1579,0.1639,0.1656,0.1439,0.1438,0.1437,0.1436,0,0,0.1266,0.1255,0.1264,0.1267,0.1293,0.1315,0.1358,0.1401,0.1431,0.1459,0.1513,0.1556,0.1557,0.1573,0.158,0.1629,0.1739,0.162,0.1622,0.1691,0.1885,0.1857,0.1872,0.1739,0.1742,0.1744,0.1904,0,0.1317,0.1344,0.1332,0.1374,0.1394,0.14,0.1438,0.1469,0.1492,0.1545,0.1572,0.1621,0.1594,0.1619,0.1666,0.1717,0.1783,0.1698,0.1813,0.1817,0.1793,0.1891,0.1896,0.2036,0.192,0.1923,0.1925,0,0.1382,0.1382,0.1416,0.1417,0.1431,0.1454,0.1505,0.1538,0.1599,0.1617,0.1664,0.1685,0.1764,0.173,0.1853,0.1801,0.1854,0.189,0.1897,0.1857,0.182,0.1958,0.2071,0.2015,0.1951,0.1949,0.1947,0,0.1425,0.1444,0.1461,0.147,0.1481,0.15,0.1518,0.1564,0.159,0.167,0.17,0.178,0.1822,0.1901,0.195,0.1924,0.2084,0.2057,0.2089,0.2087,0.2107,0.2102,0.2184,0.2169,0.2168,0.2168,0.2167,0,0.1477,0.1491,0.1477,0.1488,0.1515,0.1521,0.1558,0.1589,0.164,0.1675,0.1733,0.1779,0.1866,0.1948,0.2002,0.2093,0.2129,0.2127,0.2137,0.2129,0.2124,0.2082,0.1984,0.2174,0.2173,0.2171,0.217,0,0.1501,0.15,0.1511,0.1519,0.1525,0.1542,0.1559,0.1579,0.1634,0.1689,0.172,0.1808,0.1919,0.2002,0.2138,0.2151,0.2195,0.227,0.225,0.2255,0.2215,0.2118,0.209,0.2056,0.2361,0.2361,0.2362,0,0.15,0.1507,0.1521,0.1516,0.1511,0.1529,0.1532,0.1574,0.1589,0.1693,0.1717,0.1849,0.1922,0.2106,0.22,0.2331,0.2224,0.2374,0.232,0.2241,0.2143,0.2002,0.1965,0.2391,0.2392,0.2392,0.2393,0,0.1476,0.1486,0.1485,0.1493,0.1489,0.1496,0.1507,0.1525,0.1578,0.1633,0.1712,0.1794,0.1984,0.2111,0.2263,0.2343,0.2257,0.2385,0.233,0.2197,0.2027,0.1989,0.2249,0.2397,0.2396,0.2396,0.2396,0.2396,0.1438,0.1436,0.1437,0.1442,0.1443,0.145,0.145,0.1471,0.1511,0.1581,0.1674,0.1777,0.1984,0.2215,0.2285,0.2387,0.2283,0.237,0.2274,0.2153,0.2061,0.2316,0.2438,0.2438,0.2438,0.2438,0.2438,0,0.137,0.1377,0.1378,0.1381,0.1369,0.1397,0.1413,0.1413,0.1443,0.1535,0.1611,0.1795,0.1968,0.2141,0.2306,0.2277,0.2233,0.2232,0.2068,0.2051,0.2348,0.2291,0.2355,0.2355,0.2355,0.2355,0.2355,0.2355,0.1331,0.131,0.1326,0.1298,0.1305,0.1288,0.1295,0.1318,0.1377,0.1457,0.1538,0.1633,0.1814,0.1964,0.206,0.2089,0.1959,0.1895,0.1829,0.2061,0.2068,0.2073,0.2004,0.2006,0.2005,0.1568,0.1564,0.1561]},{"header":{"parameterUnit":"m.s-1","parameterCategory":2,"la1":30.2991,"la2":30.254,"lo1":-89.0895,"lo2":-89.0444,"dy":0.0017,"dx":0.0017,"nx":28,"ny":28,"refTime":"2025-07-30T21:00:00:Z","depth":"0","parameterNumber":3,"parameterNumberName":"V-component_of_CURRENTS"},"data":[0,0,0,0,0,0,0,0,0,0,0,0,0,0,0,0,0,0,0,0,0,0,0,0,0,0,0,0,0,0,0,0,0,0,0,0,0,0,0,0,0,0,0,0,0,0,0,0,0,0,0,0,0,0,0,0,0,0,0.04,0.0399,0,0.038,0.038,0.038,0.035,0.0349,0.0349,0.0348,0.0274,0.0273,0.0271,0,0,0,0,0,0,0,0,0,0,0,0,0,0.0429,0.0429,0.04,0.0399,0.0399,0.038,0.038,0.038,0.035,0.0349,0.0349,0.0348,0.0275,0.0273,0.0271,0,0,0,0,0,0,0,0,0,0,0,0,0,0.0414,0.0428,0.04,0.0381,0.0379,0.038,0.038,0.038,0.035,0.0349,0.0348,0.0348,0.0275,0.0273,0.0271,0.0277,0,0,0.0265,0.0264,0,0,0,0,0,0,0,0,0.0415,0.0413,0.0384,0.0383,0.038,0.0366,0.0363,0.0342,0.0351,0.0362,0.0348,0.0347,0.03,0.0296,0.0296,0.0273,0.027,0.0265,0.0263,0.0262,0.0262,0,0,0,0,0,0,0,0.0416,0.0414,0.0393,0.0384,0.0382,0.038,0.0377,0.036,0.0336,0.0361,0.0359,0.0356,0.0298,0.0298,0.0294,0.0269,0.0265,0.0263,0.0261,0.0261,0.0223,0.0223,0,0,0,0,0,0,0.0417,0.0415,0.0393,0.0392,0.0395,0.038,0.0377,0.0372,0.0337,0.0331,0.0356,0.0354,0.0302,0.0296,0.0291,0.0301,0.0262,0.026,0.0259,0.0223,0.0223,0.0223,0,0,0,0,0,0,0.0418,0.0415,0.0394,0.0403,0.04,0.0381,0.0376,0.0372,0.0374,0.0334,0.0327,0.0362,0.0301,0.0294,0.0279,0.0298,0.0259,0.0258,0.0222,0.0223,0.0223,0.0317,0,0,0,0,0,0,0.0419,0.0416,0.0413,0.0403,0.0399,0.0401,0.0376,0.0373,0.0373,0.037,0.0336,0.0328,0.03,0.0283,0.0277,0.0294,0.0256,0.0222,0.0223,0.0223,0.0314,0.0321,0.0327,0,0,0,0,0,0.042,0.0422,0.0413,0.041,0.0396,0.0402,0.0401,0.0384,0.0374,0.0381,0.0356,0.033,0.0281,0.0282,0.0275,0.0292,0.0222,0.0222,0.0223,0.0311,0.0319,0.0327,0,0,0,0,0,0,0.0435,0.0419,0.0409,0.0406,0.0406,0.0396,0.0401,0.0392,0.0381,0.0376,0.0339,0.033,0.0321,0.0291,0.0293,0.0279,0.0245,0.0244,0.0314,0.0322,0.0328,0.0342,0.0254,0,0,0,0,0,0.0437,0.0434,0.0423,0.0423,0.0425,0.0416,0.0416,0.0408,0.0396,0.0391,0.0369,0.034,0.0319,0.0309,0.0284,0.0283,0.0268,0.0285,0.0292,0.0298,0.0303,0.0299,0.0307,0.0225,0.0225,0.0225,0,0,0.0445,0.0434,0.0433,0.0426,0.0426,0.0438,0.0415,0.0422,0.0432,0.0384,0.0392,0.0364,0.0323,0.032,0.0313,0.0298,0.0315,0.0299,0.0304,0.0306,0.0301,0.0309,0.0316,0.0226,0.0226,0.0226,0,0,0.0465,0.0451,0.0458,0.0463,0.0462,0.0457,0.0463,0.046,0.0459,0.0465,0.0429,0.0416,0.0389,0.0367,0.0351,0.0377,0.0349,0.0363,0.0412,0.041,0.0417,0.0423,0.0432,0.0438,0.0369,0.0369,0.0369,0,0.0472,0.0479,0.0464,0.0478,0.0486,0.047,0.0491,0.0492,0.0485,0.0489,0.0476,0.0445,0.0414,0.0409,0.0416,0.0395,0.0389,0.0392,0.0421,0.0427,0.0431,0.0438,0.0444,0.0374,0.0373,0.0373,0.0372,0,0.0503,0.051,0.0521,0.0529,0.0536,0.0553,0.0552,0.0562,0.056,0.0556,0.0557,0.0524,0.0503,0.0494,0.0465,0.0478,0.0463,0.0432,0.0409,0.0446,0.045,0.0454,0.038,0.0378,0.0377,0.0376,0,0,0.0518,0.0536,0.0542,0.0556,0.0565,0.0577,0.0599,0.0613,0.0634,0.0626,0.0654,0.062,0.06,0.058,0.0544,0.0544,0.0579,0.0509,0.0506,0.0532,0.0586,0.0558,0.0559,0.0556,0.0556,0.0557,0.0583,0,0.0549,0.0586,0.0584,0.0624,0.0646,0.0643,0.0671,0.068,0.0683,0.0707,0.0681,0.0686,0.0633,0.0633,0.0624,0.0585,0.0591,0.0575,0.0533,0.0532,0.0514,0.0563,0.0568,0.0589,0.0586,0.0587,0.0587,0,0.0583,0.0602,0.0645,0.0678,0.0689,0.0706,0.0743,0.0767,0.0785,0.0789,0.0784,0.0766,0.076,0.0717,0.0681,0.0673,0.0639,0.0613,0.0612,0.0555,0.0511,0.0546,0.0596,0.0552,0.0593,0.0593,0.0592,0,0.0607,0.0647,0.0681,0.0693,0.0727,0.0745,0.0766,0.0789,0.0812,0.0843,0.0862,0.0844,0.0842,0.0801,0.0734,0.0716,0.0703,0.0666,0.0613,0.0611,0.0589,0.0583,0.0601,0.0654,0.0654,0.0654,0.0654,0,0.0639,0.0666,0.0694,0.0711,0.0757,0.0777,0.0817,0.084,0.0873,0.0904,0.0902,0.0917,0.0863,0.0842,0.0777,0.071,0.0732,0.0636,0.0618,0.0622,0.0619,0.0555,0.0507,0.0655,0.0654,0.0654,0.0654,0,0.0657,0.0675,0.0711,0.075,0.0764,0.0798,0.0834,0.0866,0.0903,0.0947,0.0963,0.0975,0.0958,0.0902,0.0844,0.0763,0.0678,0.0675,0.0689,0.0672,0.0569,0.0526,0.0501,0.0499,0.0633,0.0632,0.0632,0,0.0667,0.0689,0.0734,0.0752,0.0763,0.0806,0.0836,0.0872,0.0902,0.0972,0.0997,0.1015,0.1016,0.0934,0.0825,0.0737,0.0679,0.0667,0.0623,0.058,0.0519,0.0494,0.0493,0.0643,0.0642,0.0642,0.0642,0,0.0677,0.0693,0.072,0.0763,0.0787,0.0827,0.0871,0.0895,0.0952,0.0995,0.105,0.1069,0.1012,0.0935,0.082,0.0743,0.0636,0.0657,0.0613,0.0532,0.0506,0.049,0.0615,0.064,0.064,0.064,0.064,0.064,0.0675,0.0698,0.0732,0.0774,0.0808,0.0854,0.0882,0.0928,0.0983,0.1061,0.1078,0.1124,0.1042,0.0892,0.0778,0.0609,0.0605,0.0554,0.051,0.0494,0.0475,0.0597,0.0591,0.0591,0.059,0.059,0.059,0,0.0673,0.0701,0.0741,0.0787,0.0827,0.0848,0.0912,0.0943,0.1003,0.1082,0.1131,0.1145,0.1007,0.087,0.0639,0.0497,0.0461,0.0433,0.0411,0.0421,0.0537,0.052,0.0498,0.0498,0.0498,0.0498,0.0498,0.0498,0.067,0.0699,0.0729,0.0792,0.0829,0.0878,0.0913,0.0964,0.1029,0.112,0.1176,0.1228,0.1146,0.0708,0.0438,0.0377,0.0321,0.0278,0.0259,0.0336,0.0344,0.0353,0.0328,0.0266,0.0266,0.0187,0.0186,0.0185]}],[{"header":{"parameterUnit":"m.s-1","parameterCategory":2,"la1":30.2991,"la2":30.254,"lo1":-89.0895,"lo2":-89.0444,"dy":0.0017,"dx":0.0017,"nx":28,"ny":28,"refTime":"2025-07-30T21:00:00:Z","depth":"2","parameterNumber":2,"parameterNumberName":"U-component_of_CURRENTS"},"data":[0,0,0,0,0,0,0,0,0,0,0,0,0,0,0,0,0,0,0,0,0,0,0,0,0,0,0,0,0,0,0,0,0,0,0,0,0,0,0,0,0,0,0,0,0,0,0,0,0,0,0,0,0,0,0,0,0,0,-0.0264,-0.0264,0,-0.0257,-0.0257,-0.0257,-0.0214,-0.0212,-0.0211,-0.021,-0.0215,-0.0216,-0.0217,0,0,0,0,0,0,0,0,0,0,0,0,0,-0.0266,-0.0266,-0.0264,-0.0264,-0.0264,-0.0257,-0.0257,-0.0257,-0.0214,-0.0212,-0.0211,-0.021,-0.0215,-0.0216,-0.0217,0,0,0,0,0,0,0,0,0,0,0,0,0,-0.0264,-0.0266,-0.0264,-0.0241,-0.0238,-0.0257,-0.0257,-0.0257,-0.0214,-0.0212,-0.0211,-0.0209,-0.0214,-0.0216,-0.0218,-0.0264,0,0,-0.0223,-0.0224,0,0,0,0,0,0,0,0,-0.0264,-0.0264,-0.0244,-0.0242,-0.024,-0.0234,-0.026,-0.026,-0.0214,-0.0224,-0.021,-0.0208,-0.0223,-0.0224,-0.0228,-0.0264,-0.0264,-0.0223,-0.0224,-0.0225,-0.0226,0,0,0,0,0,0,0,-0.0264,-0.0264,-0.0263,-0.0244,-0.0241,-0.0239,-0.0237,-0.026,-0.0235,-0.0223,-0.022,-0.0218,-0.0222,-0.0226,-0.0228,-0.0264,-0.0223,-0.0225,-0.0226,-0.0227,-0.027,-0.027,0,0,0,0,0,0,-0.0263,-0.0264,-0.0263,-0.0262,-0.0246,-0.024,-0.0238,-0.0238,-0.0234,-0.0231,-0.022,-0.0216,-0.0224,-0.0226,-0.0228,-0.0214,-0.0225,-0.0227,-0.0228,-0.027,-0.027,-0.027,0,0,0,0,0,0,-0.0263,-0.0264,-0.0263,-0.0262,-0.0261,-0.0242,-0.0243,-0.0239,-0.0216,-0.0231,-0.0228,-0.0197,-0.0223,-0.0225,-0.0225,-0.0216,-0.0228,-0.0229,-0.027,-0.027,-0.027,-0.023,0,0,0,0,0,0,-0.0264,-0.0264,-0.0255,-0.0262,-0.0261,-0.0264,-0.0244,-0.024,-0.0219,-0.0213,-0.0211,-0.0211,-0.0221,-0.0222,-0.0227,-0.0219,-0.0231,-0.027,-0.027,-0.027,-0.0231,-0.0229,-0.0227,0,0,0,0,0,-0.0264,-0.0264,-0.0255,-0.0254,-0.0253,-0.0264,-0.0264,-0.0245,-0.0219,-0.0215,-0.0206,-0.021,-0.0226,-0.0224,-0.0229,-0.0221,-0.027,-0.027,-0.027,-0.0232,-0.0229,-0.0227,0,0,0,0,0,0,-0.0265,-0.026,-0.025,-0.0249,-0.0249,-0.0256,-0.0245,-0.0234,-0.0224,-0.0206,-0.0214,-0.0215,-0.0211,-0.0227,-0.0224,-0.0235,-0.0248,-0.025,-0.0218,-0.0215,-0.0213,-0.0197,-0.0232,0,0,0,0,0,-0.0262,-0.0255,-0.0257,-0.0255,-0.025,-0.0242,-0.0238,-0.0226,-0.0223,-0.0214,-0.0212,-0.0213,-0.0224,-0.0224,-0.0238,-0.0248,-0.0259,-0.0247,-0.0245,-0.0242,-0.0234,-0.026,-0.0259,-0.0271,-0.0271,-0.0271,0,0,-0.0264,-0.0258,-0.0255,-0.0254,-0.0246,-0.0252,-0.0235,-0.0222,-0.0222,-0.022,-0.0206,-0.0204,-0.0225,-0.0229,-0.023,-0.0236,-0.0242,-0.0243,-0.024,-0.0234,-0.026,-0.0259,-0.0258,-0.0271,-0.0271,-0.0271,0,0,-0.0271,-0.0255,-0.0251,-0.0251,-0.0237,-0.024,-0.0231,-0.0222,-0.0206,-0.0202,-0.0197,-0.019,-0.0203,-0.0216,-0.0226,-0.0225,-0.0228,-0.022,-0.0195,-0.0219,-0.0218,-0.0218,-0.0212,-0.0212,-0.0218,-0.0218,-0.0218,0,-0.0269,-0.0267,-0.0254,-0.0254,-0.0251,-0.0233,-0.0235,-0.0231,-0.0222,-0.0213,-0.019,-0.0191,-0.0203,-0.0217,-0.0202,-0.022,-0.0216,-0.0201,-0.0215,-0.0215,-0.0215,-0.021,-0.021,-0.0216,-0.0217,-0.0217,-0.0217,0,-0.0285,-0.0273,-0.027,-0.0263,-0.0264,-0.0259,-0.0255,-0.0243,-0.0214,-0.0209,-0.019,-0.019,-0.0186,-0.019,-0.0189,-0.0191,-0.0181,-0.0208,-0.0219,-0.0211,-0.0206,-0.0207,-0.0214,-0.0214,-0.0215,-0.0215,0,0,-0.0291,-0.0283,-0.0274,-0.0267,-0.0261,-0.0264,-0.0263,-0.0261,-0.0249,-0.0222,-0.021,-0.0202,-0.0168,-0.0176,-0.017,-0.018,-0.0168,-0.0174,-0.0177,-0.0161,-0.0186,-0.0127,-0.0122,-0.0187,-0.0187,-0.0187,-0.0176,0,-0.0296,-0.03,-0.0294,-0.0291,-0.0289,-0.0277,-0.0279,-0.0273,-0.0256,-0.0243,-0.0224,-0.0206,-0.0175,-0.015,-0.0152,-0.0169,-0.0168,-0.0166,-0.0202,-0.0203,-0.0146,-0.0121,-0.0149,-0.0136,-0.0177,-0.0177,-0.0177,0,-0.0299,-0.0302,-0.03,-0.029,-0.0286,-0.0278,-0.0266,-0.0266,-0.0258,-0.0237,-0.0207,-0.019,-0.0171,-0.0157,-0.0155,-0.0145,-0.0149,-0.0164,-0.0165,-0.0124,-0.0145,-0.0156,-0.0136,-0.0177,-0.0177,-0.0177,-0.0177,0,-0.0294,-0.0294,-0.0289,-0.0289,-0.0286,-0.0266,-0.0257,-0.0249,-0.0239,-0.022,-0.02,-0.0183,-0.0154,-0.0163,-0.0146,-0.0149,-0.0158,-0.0187,-0.014,-0.0136,-0.0174,-0.0172,-0.0199,-0.0199,-0.0199,-0.0199,-0.0199,0,-0.0292,-0.0278,-0.0276,-0.0267,-0.0252,-0.0248,-0.0221,-0.0211,-0.0199,-0.0179,-0.017,-0.0142,-0.015,-0.0146,-0.015,-0.0119,-0.0158,-0.0118,-0.0128,-0.0157,-0.0154,-0.021,-0.0212,-0.0199,-0.0199,-0.0199,-0.0199,0,-0.0263,-0.0269,-0.0255,-0.0246,-0.0238,-0.0215,-0.0188,-0.0176,-0.0158,-0.0132,-0.0116,-0.0107,-0.0076,-0.0088,-0.0111,-0.0107,-0.0114,-0.0103,-0.011,-0.0119,-0.0074,-0.0074,-0.0049,-0.0047,-0.0045,-0.0043,-0.0042,0,-0.0246,-0.0238,-0.0225,-0.0213,-0.0191,-0.0166,-0.0149,-0.0142,-0.0136,-0.0098,-0.0089,-0.005,-0.0005,-0.0002,0.0006,0.0014,-0.0048,-0.0041,-0.0058,-0.0046,-0.0059,-0.0061,-0.0063,-0.0095,-0.0095,-0.0094,-0.0093,0,-0.0214,-0.0199,-0.0193,-0.0163,-0.0137,-0.0134,-0.0108,-0.0101,-0.0085,-0.0049,0.0004,0.0047,0.009,0.0104,0.0111,0.0083,-0.0041,-0.0024,-0.004,-0.0111,-0.0084,-0.0098,-0.01,-0.0088,-0.0088,-0.0089,-0.0089,-0.0089,-0.0178,-0.0168,-0.0149,-0.0115,-0.0098,-0.0085,-0.006,-0.0038,-0.0002,0.0058,0.0075,0.0142,0.0072,0.013,0.0129,0.0118,0.0103,0.0011,0.0006,0.0001,0.0011,0.0042,0.0065,0.0065,0.0066,0.0066,0.0066,0,-0.016,-0.0138,-0.0105,-0.0083,-0.0057,-0.0044,-0.0027,-0.0008,0.0063,0.0103,0.0179,0.0148,0.0157,0.012,0.0164,0.0157,0.0119,0.0089,0.0019,0.0012,0.0007,0.0015,0.0071,0.0072,0.0072,0.0073,0,0,-0.0155,-0.0127,-0.0108,-0.0051,-0.0018,0.0025,0.005,0.0083,0.0104,0.0172,0.021,0.0183,0.0132,0.0118,0.008,0.0113,0.0062,0.0092,0.0076,-0.0012,-0.0016,-0.0062,-0.0058,0,0,0,0,0]},{"header":{"parameterUnit":"m.s-1","parameterCategory":2,"la1":30.2991,"la2":30.254,"lo1":-89.0895,"lo2":-89.0444,"dy":0.0017,"dx":0.0017,"nx":28,"ny":28,"refTime":"2025-07-30T21:00:00:Z","depth":"2","parameterNumber":3,"parameterNumberName":"V-component_of_CURRENTS"},"data":[0,0,0,0,0,0,0,0,0,0,0,0,0,0,0,0,0,0,0,0,0,0,0,0,0,0,0,0,0,0,0,0,0,0,0,0,0,0,0,0,0,0,0,0,0,0,0,0,0,0,0,0,0,0,0,0,0,0,-0.018,-0.018,0,-0.0206,-0.0206,-0.0206,-0.0229,-0.0229,-0.023,-0.023,-0.0287,-0.0288,-0.0289,0,0,0,0,0,0,0,0,0,0,0,0,0,-0.0118,-0.0119,-0.018,-0.018,-0.0181,-0.0206,-0.0206,-0.0206,-0.0229,-0.0229,-0.023,-0.023,-0.0287,-0.0288,-0.0289,0,0,0,0,0,0,0,0,0,0,0,0,0,-0.0143,-0.012,-0.018,-0.0197,-0.0199,-0.0206,-0.0206,-0.0206,-0.0229,-0.0229,-0.023,-0.0231,-0.0286,-0.0288,-0.029,-0.0287,0,0,-0.0295,-0.0295,0,0,0,0,0,0,0,0,-0.0142,-0.0145,-0.0194,-0.0196,-0.0198,-0.0217,-0.0206,-0.0235,-0.0229,-0.0215,-0.023,-0.0231,-0.0267,-0.0271,-0.0271,-0.0289,-0.0292,-0.0295,-0.0296,-0.0297,-0.0297,0,0,0,0,0,0,0,-0.014,-0.0144,-0.0188,-0.0194,-0.0197,-0.0192,-0.0197,-0.0211,-0.0236,-0.0216,-0.0219,-0.0224,-0.0268,-0.0269,-0.0272,-0.0292,-0.0295,-0.0296,-0.0297,-0.0298,-0.0362,-0.0363,0,0,0,0,0,0,-0.0142,-0.0142,-0.0187,-0.0189,-0.0173,-0.0193,-0.0198,-0.0208,-0.0235,-0.0241,-0.0224,-0.0225,-0.0266,-0.027,-0.0274,-0.031,-0.0296,-0.0298,-0.0299,-0.0362,-0.0362,-0.0363,0,0,0,0,0,0,-0.0141,-0.0146,-0.0186,-0.0168,-0.0173,-0.0194,-0.0205,-0.0208,-0.0223,-0.0241,-0.0247,-0.0237,-0.0266,-0.0272,-0.0299,-0.0311,-0.0299,-0.03,-0.0361,-0.0362,-0.0363,-0.0356,0,0,0,0,0,0,-0.0139,-0.0145,-0.0156,-0.0168,-0.0174,-0.0198,-0.0205,-0.0209,-0.0226,-0.0229,-0.0254,-0.0259,-0.0267,-0.0296,-0.03,-0.0313,-0.0302,-0.036,-0.0361,-0.0362,-0.0356,-0.0357,-0.0358,0,0,0,0,0,-0.0136,-0.0148,-0.0157,-0.0162,-0.0188,-0.0198,-0.0201,-0.0216,-0.0226,-0.0232,-0.0252,-0.0259,-0.0308,-0.0298,-0.0303,-0.0316,-0.0359,-0.0361,-0.0362,-0.0355,-0.0357,-0.0358,0,0,0,0,0,0,-0.0129,-0.0152,-0.0162,-0.0181,-0.0193,-0.0203,-0.0215,-0.0222,-0.0241,-0.0251,-0.0265,-0.0271,-0.03,-0.031,-0.0298,-0.034,-0.0336,-0.0339,-0.0329,-0.0331,-0.0332,-0.0318,-0.0303,0,0,0,0,0,-0.0132,-0.0149,-0.0165,-0.0182,-0.0191,-0.0204,-0.0213,-0.0223,-0.0239,-0.0249,-0.0267,-0.0289,-0.0307,-0.0321,-0.0339,-0.0359,-0.0353,-0.0372,-0.0374,-0.0375,-0.0367,-0.0378,-0.0379,-0.0368,-0.0368,-0.0368,0,0,-0.0134,-0.015,-0.016,-0.0182,-0.0195,-0.0203,-0.0211,-0.023,-0.0237,-0.0252,-0.0277,-0.0295,-0.0314,-0.0337,-0.0351,-0.0349,-0.0373,-0.0377,-0.0377,-0.0369,-0.038,-0.0381,-0.0381,-0.037,-0.0369,-0.0369,0,0,-0.0137,-0.0162,-0.0173,-0.0183,-0.0205,-0.0213,-0.022,-0.0239,-0.0252,-0.0271,-0.0287,-0.0309,-0.034,-0.035,-0.036,-0.0379,-0.038,-0.0395,-0.039,-0.0401,-0.0401,-0.0401,-0.0382,-0.0381,-0.0396,-0.0396,-0.0396,0,-0.0139,-0.0153,-0.0176,-0.0184,-0.0191,-0.0218,-0.022,-0.0237,-0.0261,-0.027,-0.0282,-0.0322,-0.0341,-0.0358,-0.0368,-0.038,-0.0379,-0.038,-0.04,-0.0401,-0.0401,-0.0382,-0.038,-0.0396,-0.0396,-0.0396,-0.0396,0,-0.0144,-0.0155,-0.0164,-0.0183,-0.0192,-0.0204,-0.0224,-0.0243,-0.0264,-0.0275,-0.0304,-0.0326,-0.0347,-0.0362,-0.0371,-0.0388,-0.0383,-0.0399,-0.0391,-0.0402,-0.038,-0.0379,-0.0396,-0.0396,-0.0396,-0.0396,0,0,-0.0145,-0.0162,-0.0166,-0.0167,-0.0192,-0.0198,-0.0218,-0.0235,-0.0245,-0.0279,-0.0285,-0.0322,-0.0338,-0.0349,-0.0368,-0.0379,-0.038,-0.0393,-0.0393,-0.0363,-0.0384,-0.0353,-0.0348,-0.0406,-0.0406,-0.0406,-0.0362,0,-0.0141,-0.0147,-0.0156,-0.016,-0.0164,-0.0187,-0.0196,-0.0218,-0.0241,-0.0258,-0.0289,-0.0307,-0.0333,-0.0344,-0.0361,-0.038,-0.0379,-0.0389,-0.0387,-0.0386,-0.035,-0.0347,-0.035,-0.0309,-0.0361,-0.036,-0.036,0,-0.0142,-0.0144,-0.0143,-0.0143,-0.0146,-0.0153,-0.0171,-0.0182,-0.0214,-0.0229,-0.0258,-0.0282,-0.0308,-0.0328,-0.0354,-0.0363,-0.037,-0.0379,-0.0378,-0.0348,-0.0353,-0.0312,-0.0305,-0.0358,-0.0358,-0.0358,-0.0359,0,-0.0131,-0.0134,-0.013,-0.0133,-0.014,-0.0145,-0.0155,-0.0179,-0.0183,-0.0215,-0.0218,-0.0258,-0.0268,-0.0301,-0.0328,-0.0346,-0.0343,-0.0369,-0.0336,-0.0332,-0.0333,-0.0329,-0.0371,-0.0371,-0.0371,-0.0372,-0.0372,0,-0.0121,-0.0118,-0.0127,-0.0127,-0.0121,-0.0133,-0.0133,-0.0149,-0.0163,-0.0163,-0.0204,-0.0208,-0.0265,-0.0276,-0.031,-0.0311,-0.0328,-0.0323,-0.0322,-0.0329,-0.0326,-0.0374,-0.0375,-0.037,-0.037,-0.0371,-0.0371,0,-0.0106,-0.0113,-0.0108,-0.0114,-0.0116,-0.0116,-0.0118,-0.0118,-0.0131,-0.0131,-0.0139,-0.0167,-0.0186,-0.022,-0.0254,-0.0268,-0.0285,-0.0276,-0.0262,-0.0261,-0.0268,-0.027,-0.0237,-0.0236,-0.0235,-0.0234,-0.0233,0,-0.0096,-0.0094,-0.0099,-0.0094,-0.0098,-0.0099,-0.0098,-0.0109,-0.0107,-0.0108,-0.0105,-0.0114,-0.0122,-0.0141,-0.0167,-0.0186,-0.0234,-0.0203,-0.0239,-0.0253,-0.0256,-0.0259,-0.0262,-0.0231,-0.023,-0.0229,-0.0229,0,-0.0071,-0.0078,-0.0072,-0.007,-0.007,-0.0063,-0.0066,-0.0061,-0.0069,-0.0053,-0.0045,-0.0046,-0.0054,-0.0086,-0.01,-0.0122,-0.0206,-0.0188,-0.0215,-0.0263,-0.0244,-0.0247,-0.0251,-0.0223,-0.0223,-0.0224,-0.0224,-0.0224,-0.0048,-0.0041,-0.0041,-0.0035,-0.003,-0.0028,-0.0013,-0.0005,0.0016,0.0063,0.0031,0.0042,-0.0019,-0.0027,-0.0066,-0.0109,-0.0116,-0.0166,-0.017,-0.0174,-0.018,-0.0159,-0.0122,-0.0122,-0.0122,-0.0122,-0.0122,0,-0.0017,-0.0013,-0.0005,0.0002,0.0017,0.0009,0.0019,0.0054,0.0102,0.0128,0.0172,0.0079,0.0063,-0.0023,-0.0072,-0.0093,-0.0106,-0.0125,-0.0166,-0.0171,-0.0175,-0.0184,-0.0126,-0.0126,-0.0126,-0.0126,0,0,0.0007,0.0014,0.0014,0.0044,0.0059,0.0095,0.0112,0.0169,0.0197,0.0199,0.0185,0.025,0.0081,0.0037,-0.0023,-0.0081,-0.0102,-0.0074,-0.0067,-0.0109,-0.0113,-0.0196,-0.0213,0,0,0,0,0]}],[{"header":{"parameterUnit":"m.s-1","parameterCategory":2,"la1":30.2991,"la2":30.254,"lo1":-89.0895,"lo2":-89.0444,"dy":0.0017,"dx":0.0017,"nx":28,"ny":28,"refTime":"2025-07-30T21:00:00:Z","depth":"4","parameterNumber":2,"parameterNumberName":"U-component_of_CURRENTS"},"data":[0,0,0,0,0,0,0,0,0,0,0,0,0,0,0,0,0,0,0,0,0,0,0,0,0,0,0,0,0,0,0,0,0,0,0,0,0,0,0,0,0,0,0,0,0,0,0,0,0,0,0,0,0,0,0,0,0,0,-0.0282,-0.0283,0,-0.0293,-0.0293,-0.0293,-0.0323,-0.0324,-0.0325,-0.0325,-0.0406,-0.0407,-0.0409,0,0,0,0,0,0,0,0,0,0,0,0,0,-0.0266,-0.0266,-0.0282,-0.0283,-0.0283,-0.0293,-0.0293,-0.0293,-0.0323,-0.0324,-0.0325,-0.0326,-0.0405,-0.0407,-0.0409,0,0,0,0,0,0,0,0,0,0,0,0,0,-0.0274,-0.0266,-0.0282,-0.0299,-0.0301,-0.0293,-0.0293,-0.0293,-0.0323,-0.0324,-0.0325,-0.0326,-0.0405,-0.0407,-0.0409,-0.0402,0,0,-0.0416,-0.0417,0,0,0,0,0,0,0,0,-0.0273,-0.0274,-0.0297,-0.0298,-0.03,-0.0308,-0.0316,-0.0333,-0.0323,-0.0314,-0.0325,-0.0327,-0.0379,-0.0384,-0.0382,-0.0406,-0.0409,-0.0416,-0.0418,-0.0419,-0.0419,0,0,0,0,0,0,0,-0.0273,-0.0274,-0.0286,-0.0297,-0.0299,-0.0298,-0.0301,-0.0319,-0.0342,-0.0315,-0.0317,-0.0319,-0.0381,-0.0379,-0.0384,-0.041,-0.0416,-0.0418,-0.042,-0.042,-0.0551,-0.0553,0,0,0,0,0,0,-0.0272,-0.0274,-0.0286,-0.0286,-0.0289,-0.0298,-0.0301,-0.0304,-0.034,-0.0346,-0.0318,-0.032,-0.0375,-0.0381,-0.0387,-0.05,-0.0419,-0.0421,-0.0422,-0.0549,-0.0552,-0.0554,0,0,0,0,0,0,-0.0272,-0.0273,-0.0285,-0.028,-0.0282,-0.0297,-0.0301,-0.0304,-0.0322,-0.0341,-0.0349,-0.0335,-0.0376,-0.0384,-0.0433,-0.0499,-0.0422,-0.0424,-0.0547,-0.055,-0.0553,-0.0649,0,0,0,0,0,0,-0.0272,-0.0273,-0.0277,-0.028,-0.0282,-0.0295,-0.03,-0.0303,-0.032,-0.0323,-0.0358,-0.0365,-0.0378,-0.043,-0.0436,-0.05,-0.0425,-0.0544,-0.0548,-0.0552,-0.0643,-0.0655,-0.0665,0,0,0,0,0,-0.0271,-0.0275,-0.0277,-0.0279,-0.0287,-0.0296,-0.0297,-0.0311,-0.032,-0.033,-0.0364,-0.0365,-0.046,-0.0433,-0.0439,-0.0506,-0.0542,-0.0547,-0.0551,-0.0638,-0.0652,-0.0665,0,0,0,0,0,0,-0.0271,-0.0279,-0.0281,-0.0288,-0.0297,-0.0302,-0.0308,-0.0318,-0.0349,-0.0366,-0.0382,-0.0392,-0.0467,-0.0463,-0.0432,-0.0555,-0.0506,-0.0512,-0.0569,-0.0583,-0.0594,-0.0582,-0.0427,0,0,0,0,0,-0.0271,-0.0277,-0.0284,-0.029,-0.0294,-0.0302,-0.0308,-0.0327,-0.0351,-0.0365,-0.04,-0.044,-0.0486,-0.0514,-0.0548,-0.0602,-0.0565,-0.0652,-0.0663,-0.0672,-0.0667,-0.0656,-0.0665,-0.057,-0.057,-0.057,0,0,-0.0272,-0.0277,-0.028,-0.0291,-0.0295,-0.0308,-0.0309,-0.0333,-0.036,-0.037,-0.0432,-0.048,-0.0508,-0.0584,-0.0617,-0.0592,-0.0682,-0.0678,-0.0686,-0.0675,-0.0662,-0.0671,-0.0678,-0.0573,-0.0572,-0.0572,0,0,-0.0275,-0.0281,-0.0287,-0.0296,-0.0315,-0.0325,-0.0336,-0.0367,-0.0396,-0.0459,-0.0486,-0.0565,-0.0625,-0.067,-0.0694,-0.0779,-0.0741,-0.0805,-0.0855,-0.0846,-0.0853,-0.0858,-0.0828,-0.083,-0.0811,-0.0811,-0.0811,0,-0.0277,-0.0284,-0.0291,-0.0301,-0.0312,-0.0334,-0.0352,-0.0378,-0.0433,-0.047,-0.0495,-0.0631,-0.0667,-0.0752,-0.0801,-0.0807,-0.078,-0.0804,-0.0858,-0.0863,-0.0867,-0.0834,-0.0836,-0.0816,-0.0816,-0.0815,-0.0815,0,-0.0282,-0.0293,-0.0297,-0.0317,-0.0334,-0.0354,-0.0389,-0.0435,-0.0489,-0.0531,-0.0649,-0.0718,-0.0798,-0.0842,-0.0854,-0.0926,-0.089,-0.0872,-0.082,-0.0882,-0.0844,-0.0844,-0.0824,-0.0822,-0.082,-0.0819,0,0,-0.027,-0.0296,-0.0297,-0.0305,-0.0349,-0.0358,-0.0417,-0.0471,-0.0511,-0.0621,-0.0692,-0.0824,-0.0884,-0.0915,-0.0962,-0.0976,-0.1004,-0.0948,-0.0946,-0.091,-0.0966,-0.0839,-0.0826,-0.0993,-0.0993,-0.0994,-0.0928,0,-0.0271,-0.0284,-0.0308,-0.0331,-0.034,-0.0387,-0.0431,-0.0496,-0.0566,-0.0645,-0.0756,-0.0851,-0.0901,-0.0971,-0.0999,-0.1,-0.1006,-0.1022,-0.0917,-0.0914,-0.0787,-0.0822,-0.0995,-0.0927,-0.0927,-0.0927,-0.0927,0,-0.0264,-0.0276,-0.0298,-0.0335,-0.0344,-0.0381,-0.0452,-0.0506,-0.0616,-0.0684,-0.0809,-0.0874,-0.0975,-0.0991,-0.1021,-0.1028,-0.1009,-0.0997,-0.0994,-0.0836,-0.0785,-0.0851,-0.0924,-0.0925,-0.0925,-0.0925,-0.0925,0,-0.0236,-0.0265,-0.0281,-0.0293,-0.0346,-0.039,-0.0446,-0.0541,-0.0586,-0.0732,-0.078,-0.0897,-0.0965,-0.0975,-0.0981,-0.1001,-0.0958,-0.097,-0.0835,-0.0825,-0.0915,-0.0909,-0.0963,-0.0963,-0.0964,-0.0964,-0.0964,0,-0.0221,-0.0231,-0.0276,-0.0284,-0.032,-0.0389,-0.0451,-0.0529,-0.0634,-0.0673,-0.0819,-0.0841,-0.096,-0.0954,-0.0958,-0.0879,-0.0936,-0.0836,-0.08,-0.0958,-0.0959,-0.0914,-0.0909,-0.0961,-0.0962,-0.0962,-0.0963,0,-0.0196,-0.0215,-0.0231,-0.0287,-0.0309,-0.0356,-0.0446,-0.0482,-0.0604,-0.0658,-0.0709,-0.0803,-0.0781,-0.0834,-0.0826,-0.0823,-0.0775,-0.0728,-0.0874,-0.0848,-0.0658,-0.066,-0.058,-0.0575,-0.0571,-0.0568,-0.0565,0,-0.0186,-0.0193,-0.0224,-0.0231,-0.0268,-0.0334,-0.0367,-0.0479,-0.0506,-0.0588,-0.0591,-0.0616,-0.0654,-0.0558,-0.0615,-0.0596,-0.0595,-0.0601,-0.0667,-0.0646,-0.062,-0.0628,-0.0634,-0.0558,-0.0557,-0.0556,-0.0555,0,-0.0174,-0.0185,-0.0195,-0.0209,-0.0236,-0.0247,-0.0309,-0.0312,-0.0412,-0.0486,-0.0464,-0.0477,-0.043,-0.0446,-0.0439,-0.0428,-0.0626,-0.0557,-0.0567,-0.063,-0.0618,-0.0597,-0.0609,-0.054,-0.0542,-0.0543,-0.0544,0,-0.0169,-0.0169,-0.0177,-0.019,-0.0193,-0.0179,-0.0211,-0.0222,-0.0258,-0.0348,-0.0298,-0.0329,-0.0372,-0.0346,-0.0319,-0.0318,-0.033,-0.0378,-0.0398,-0.0415,-0.0396,-0.0359,-0.016,0,0,0,0,0,-0.0166,-0.0161,-0.016,-0.0156,-0.0145,-0.0149,-0.0166,-0.0195,-0.0245,-0.0205,-0.0268,-0.0215,-0.0205,-0.0212,-0.0176,-0.0233,-0.033,-0.0193,-0.0397,-0.0458,-0.0475,-0.047,0,0,0,0,0,0,-0.0162,-0.0161,-0.0154,-0.0119,-0.0102,-0.009,-0.0092,-0.0123,-0.0106,-0.0159,-0.0138,-0.0196,-0.017,-0.0207,-0.0167,-0.0171,-0.0295,-0.0209,-0.0208,-0.0449,-0.0464,-0.0478,-0.0479,0,0,0,0,0]},{"header":{"parameterUnit":"m.s-1","parameterCategory":2,"la1":30.2991,"la2":30.254,"lo1":-89.0895,"lo2":-89.0444,"dy":0.0017,"dx":0.0017,"nx":28,"ny":28,"refTime":"2025-07-30T21:00:00:Z","depth":"4","parameterNumber":3,"parameterNumberName":"V-component_of_CURRENTS"},"data":[0,0,0,0,0,0,0,0,0,0,0,0,0,0,0,0,0,0,0,0,0,0,0,0,0,0,0,0,0,0,0,0,0,0,0,0,0,0,0,0,0,0,0,0,0,0,0,0,0,0,0,0,0,0,0,0,0,0,-0.0044,-0.0044,0,-0.0059,-0.0059,-0.006,-0.0039,-0.0039,-0.0038,-0.0037,-0.0056,-0.0057,-0.0058,0,0,0,0,0,0,0,0,0,0,0,0,0,-0.0026,-0.0027,-0.0044,-0.0044,-0.0044,-0.0059,-0.0059,-0.006,-0.004,-0.0039,-0.0038,-0.0037,-0.0056,-0.0057,-0.0059,0,0,0,0,0,0,0,0,0,0,0,0,0,-0.0038,-0.0027,-0.0044,-0.0035,-0.0034,-0.0059,-0.0059,-0.006,-0.004,-0.0039,-0.0037,-0.0036,-0.0055,-0.0057,-0.0059,-0.0094,0,0,-0.0065,-0.0065,0,0,0,0,0,0,0,0,-0.0037,-0.0038,-0.0036,-0.0036,-0.0035,-0.0045,-0.006,-0.0071,-0.004,-0.0039,-0.0037,-0.0036,-0.0053,-0.0055,-0.0062,-0.0095,-0.0096,-0.0065,-0.0066,-0.0067,-0.0067,0,0,0,0,0,0,0,-0.0036,-0.0038,-0.005,-0.0036,-0.0036,-0.0041,-0.0041,-0.0062,-0.0053,-0.0039,-0.0037,-0.0038,-0.0053,-0.006,-0.0062,-0.0096,-0.0065,-0.0066,-0.0067,-0.0068,-0.0135,-0.0136,0,0,0,0,0,0,-0.0033,-0.0037,-0.005,-0.0051,-0.0032,-0.0042,-0.0042,-0.0044,-0.0053,-0.0053,-0.0039,-0.0037,-0.0057,-0.006,-0.0063,-0.0084,-0.0067,-0.0068,-0.0069,-0.0134,-0.0135,-0.0136,0,0,0,0,0,0,-0.0032,-0.0034,-0.0049,-0.0044,-0.0046,-0.0043,-0.0046,-0.0045,-0.0047,-0.0053,-0.0053,-0.004,-0.0057,-0.006,-0.0087,-0.0086,-0.0069,-0.0071,-0.0134,-0.0135,-0.0135,-0.0142,0,0,0,0,0,0,-0.0032,-0.0034,-0.0036,-0.0043,-0.0046,-0.007,-0.0047,-0.0046,-0.0049,-0.0046,-0.0055,-0.0055,-0.0056,-0.0084,-0.0089,-0.0088,-0.0072,-0.0133,-0.0134,-0.0135,-0.0141,-0.0143,-0.0144,0,0,0,0,0,-0.0031,-0.0043,-0.0036,-0.0038,-0.0049,-0.0071,-0.0074,-0.0068,-0.005,-0.0062,-0.0066,-0.0055,-0.0094,-0.0087,-0.0092,-0.0092,-0.0132,-0.0134,-0.0135,-0.014,-0.0142,-0.0144,0,0,0,0,0,0,-0.0039,-0.0043,-0.0035,-0.0047,-0.0059,-0.0067,-0.0078,-0.007,-0.0083,-0.0078,-0.0075,-0.0077,-0.0099,-0.0101,-0.0093,-0.0115,-0.0107,-0.011,-0.0109,-0.0111,-0.0113,-0.0102,-0.0074,0,0,0,0,0,-0.0041,-0.005,-0.0056,-0.0067,-0.0073,-0.0074,-0.0081,-0.0079,-0.0089,-0.0092,-0.0098,-0.0102,-0.0112,-0.0115,-0.0133,-0.0151,-0.0141,-0.0151,-0.0153,-0.0155,-0.015,-0.0135,-0.0134,-0.0141,-0.0141,-0.0141,0,0,-0.0048,-0.0051,-0.0056,-0.0069,-0.0076,-0.0103,-0.0076,-0.0092,-0.0116,-0.0094,-0.0128,-0.0119,-0.0122,-0.0141,-0.0149,-0.0138,-0.015,-0.0157,-0.0158,-0.0152,-0.0136,-0.0135,-0.0135,-0.0142,-0.0141,-0.0141,0,0,-0.0077,-0.0068,-0.009,-0.0104,-0.0117,-0.0122,-0.0127,-0.0139,-0.0143,-0.0172,-0.0157,-0.0153,-0.0175,-0.0172,-0.0172,-0.02,-0.0168,-0.019,-0.0182,-0.0168,-0.0167,-0.0166,-0.0159,-0.0157,-0.0182,-0.0182,-0.0182,0,-0.0084,-0.0108,-0.0102,-0.0131,-0.0145,-0.0133,-0.0165,-0.0179,-0.0199,-0.0204,-0.0187,-0.0193,-0.0194,-0.02,-0.0191,-0.0204,-0.018,-0.0171,-0.0169,-0.0168,-0.0166,-0.0159,-0.0157,-0.0182,-0.0182,-0.0182,-0.0182,0,-0.0135,-0.0153,-0.0169,-0.0199,-0.0216,-0.024,-0.0255,-0.027,-0.0262,-0.0265,-0.027,-0.0257,-0.0245,-0.0241,-0.0216,-0.02,-0.0182,-0.0179,-0.0159,-0.0166,-0.0158,-0.0156,-0.0183,-0.0183,-0.0183,-0.0183,0,0,-0.0154,-0.0195,-0.0201,-0.0215,-0.0249,-0.0264,-0.0308,-0.0333,-0.0343,-0.0343,-0.0347,-0.0333,-0.0285,-0.028,-0.0243,-0.0215,-0.0181,-0.017,-0.0169,-0.0155,-0.0135,-0.0164,-0.0164,-0.0156,-0.0156,-0.0155,-0.0136,0,-0.0194,-0.0246,-0.0264,-0.0313,-0.0335,-0.0344,-0.038,-0.0399,-0.0401,-0.0406,-0.0374,-0.0362,-0.0314,-0.0275,-0.0243,-0.0196,-0.0172,-0.0186,-0.0137,-0.0136,-0.0154,-0.0162,-0.0154,-0.0134,-0.0133,-0.0133,-0.0133,0,-0.0239,-0.0262,-0.0317,-0.0347,-0.0358,-0.0397,-0.0423,-0.0451,-0.0462,-0.0451,-0.0422,-0.0386,-0.0336,-0.0293,-0.0219,-0.0216,-0.0168,-0.0138,-0.0137,-0.0157,-0.016,-0.0125,-0.0128,-0.0128,-0.0129,-0.0129,-0.0129,0,-0.024,-0.0295,-0.0332,-0.0348,-0.0391,-0.0421,-0.0443,-0.0469,-0.0477,-0.0467,-0.0449,-0.0402,-0.0354,-0.0295,-0.0211,-0.0197,-0.0139,-0.0129,-0.0125,-0.0127,-0.0102,-0.0104,-0.0089,-0.0089,-0.0089,-0.0089,-0.009,0,-0.0266,-0.0295,-0.0337,-0.0357,-0.0395,-0.0425,-0.0459,-0.0474,-0.0485,-0.0482,-0.0452,-0.0425,-0.0338,-0.0291,-0.0227,-0.0169,-0.0156,-0.0125,-0.0124,-0.0108,-0.011,-0.0101,-0.0102,-0.0089,-0.0089,-0.0089,-0.0089,0,-0.0269,-0.0298,-0.0334,-0.0381,-0.04,-0.0426,-0.0467,-0.0479,-0.0487,-0.0481,-0.0465,-0.0425,-0.0362,-0.0305,-0.0219,-0.019,-0.0142,-0.0129,-0.0125,-0.0123,-0.0135,-0.0137,-0.0124,-0.0125,-0.0126,-0.0126,-0.0127,0,-0.0279,-0.0299,-0.0342,-0.0361,-0.0392,-0.043,-0.0452,-0.0475,-0.0476,-0.0478,-0.0463,-0.0419,-0.0382,-0.0294,-0.0245,-0.0173,-0.0157,-0.0142,-0.0125,-0.0139,-0.0138,-0.0139,-0.0141,-0.0128,-0.0128,-0.0128,-0.0129,0,-0.0288,-0.0303,-0.0326,-0.0355,-0.0388,-0.0414,-0.0445,-0.0443,-0.0454,-0.0461,-0.0431,-0.0402,-0.0353,-0.029,-0.0242,-0.0189,-0.0158,-0.0149,-0.0146,-0.013,-0.0143,-0.0142,-0.0143,-0.0131,-0.0131,-0.013,-0.013,0,-0.0289,-0.0301,-0.0321,-0.0347,-0.0377,-0.0396,-0.0415,-0.0413,-0.0416,-0.0412,-0.0405,-0.0375,-0.035,-0.0301,-0.026,-0.0215,-0.0197,-0.0174,-0.017,-0.0167,-0.0189,-0.0212,-0.022,0,0,0,0,0,-0.0289,-0.0295,-0.0312,-0.0338,-0.0361,-0.038,-0.0403,-0.0414,-0.0424,-0.039,-0.0395,-0.035,-0.0307,-0.0297,-0.0251,-0.028,-0.02,-0.0229,-0.0173,-0.0145,-0.0142,-0.0164,0,0,0,0,0,0,-0.0289,-0.0302,-0.0304,-0.0319,-0.0334,-0.0361,-0.0377,-0.0387,-0.0362,-0.0367,-0.0332,-0.0341,-0.0286,-0.0316,-0.0246,-0.0242,-0.0202,-0.0214,-0.0213,-0.0146,-0.0144,-0.0141,-0.0164,0,0,0,0,0]}]]